[[{"header":{"parameterUnit":"m.s-1","parameterCategory":1,"la1":30.2991,"la2":30.254,"lo1":-89.0895,"lo2":-89.0444,"dy":0.0017,"dx":0.0017,"nx":28,"ny":28,"refTime":"2023-08-23T21:00:00:Z","depth":0,"parameterNumber":2,"parameterNumberName":"U-component_of_WINDS"},"data":[0,0,0,0,0,0,0,0,0,0,0,0,0,0,0,0,0,0,0,0,0,0,0,0,0,0,0,0,0,0,0,0,0,0,0,0,0,0,0,0,0,0,0,0,0,0,0,0,0,0,0,0,0,0,0,0,0,0,-0.9844,-0.9845,0,-0.9927,-0.9928,-0.9929,-0.9982,-0.9983,-0.9983,-0.9983,-1.0067,-1.0069,-1.0071,0,0,0,0,0,0,0,0,0,0,0,0,0,-0.9731,-0.9733,-0.9844,-0.9845,-0.9846,-0.9927,-0.9928,-0.9929,-0.9982,-0.9983,-0.9983,-0.9983,-1.0067,-1.0069,-1.0071,0,0,0,0,0,0,0,0,0,0,0,0,0,-0.9793,-0.9733,-0.9844,-0.9882,-0.9887,-0.9927,-0.9928,-0.9929,-0.9982,-0.9983,-0.9983,-0.9984,-1.0066,-1.0069,-1.0072,-1.008,0,0,-1.0081,-1.0082,0,0,0,0,0,0,0,0,-0.979,-0.9798,-0.9876,-0.988,-0.9885,-0.9945,-0.9919,-0.998,-0.9982,-0.9946,-0.9983,-0.9984,-1.0026,-1.0032,-1.0047,-1.0084,-1.0087,-1.0081,-1.0083,-1.0084,-1.0085,0,0,0,0,0,0,0,-0.9785,-0.9794,-0.9877,-0.9877,-0.9882,-0.9895,-0.9905,-0.9931,-0.9982,-0.9949,-0.9953,-0.9962,-1.0029,-1.0044,-1.0049,-1.0089,-1.0081,-1.0083,-1.0085,-1.0086,-1.0137,-1.0137,0,0,0,0,0,0,-0.9775,-0.979,-0.9874,-0.9879,-0.9838,-0.9897,-0.9908,-0.9925,-0.9982,-0.9991,-0.9962,-0.9964,-1.0039,-1.0046,-1.0052,-1.0066,-1.0084,-1.0087,-1.0088,-1.0137,-1.0137,-1.0136,0,0,0,0,0,0,-0.9772,-0.9782,-0.9871,-0.9836,-0.9848,-0.9898,-0.9918,-0.9926,-0.9942,-0.9992,-1.0001,-0.9968,-1.0039,-1.0048,-1.0073,-1.007,-1.0088,-1.0091,-1.0138,-1.0137,-1.0137,-1.0093,0,0,0,0,0,0,-0.9769,-0.9781,-0.9784,-0.9836,-0.985,-0.989,-0.9917,-0.9928,-0.9947,-0.9951,-1.0,-1.0009,-1.0041,-1.0068,-1.0076,-1.0074,-1.0093,-1.0138,-1.0138,-1.0137,-1.0095,-1.0091,-1.0088,0,0,0,0,0,-0.9765,-0.9768,-0.9784,-0.9794,-0.9855,-0.9889,-0.9898,-0.9935,-0.9946,-0.995,-0.9982,-1.0007,-1.0069,-1.007,-1.0079,-1.0078,-1.0139,-1.0138,-1.0137,-1.0097,-1.0092,-1.0088,0,0,0,0,0,0,-0.9715,-0.9776,-0.9794,-0.9814,-0.9846,-0.9898,-0.9905,-0.9928,-0.9957,-0.996,-1.0004,-1.0015,-1.0035,-1.0059,-1.006,-1.009,-1.0107,-1.0108,-1.0073,-1.0069,-1.0065,-1.0059,-1.0095,0,0,0,0,0,-0.9706,-0.9729,-0.9781,-0.9794,-0.9809,-0.9854,-0.987,-0.9896,-0.9931,-0.9944,-0.9978,-1.0011,-1.0038,-1.0055,-1.0082,-1.0099,-1.0111,-1.0103,-1.0099,-1.0096,-1.0096,-1.0107,-1.0104,-1.0134,-1.0134,-1.0134,0,0,-0.9688,-0.9725,-0.9736,-0.9785,-0.9813,-0.9835,-0.9865,-0.9887,-0.9904,-0.9948,-0.9973,-0.9999,-1.0039,-1.0059,-1.007,-1.008,-1.0091,-1.0095,-1.0092,-1.0094,-1.0106,-1.0103,-1.0101,-1.0133,-1.0133,-1.0133,0,0,-0.9668,-0.9697,-0.9712,-0.9739,-0.9781,-0.9811,-0.9815,-0.9863,-0.9883,-0.9909,-0.9942,-0.9963,-1.0008,-1.0035,-1.0055,-1.0045,-1.0069,-1.0053,-1.0034,-1.0044,-1.0042,-1.004,-1.0037,-1.0036,-1.0053,-1.0053,-1.0053,0,-0.964,-0.9676,-0.9716,-0.9737,-0.9757,-0.9798,-0.9813,-0.9838,-0.9886,-0.9899,-0.991,-0.9968,-0.9998,-1.0026,-1.0023,-1.0038,-1.0043,-1.0048,-1.0039,-1.0038,-1.0037,-1.0034,-1.0033,-1.0051,-1.0051,-1.0051,-1.0052,0,-0.964,-0.9664,-0.9671,-0.9718,-0.9739,-0.9756,-0.9799,-0.9816,-0.984,-0.9869,-0.9895,-0.9932,-0.9968,-0.9977,-1.0,-1.0008,-1.0013,-1.0031,-1.0049,-1.0031,-1.003,-1.0029,-1.0048,-1.0048,-1.0049,-1.005,0,0,-0.959,-0.9659,-0.9661,-0.9683,-0.9733,-0.9752,-0.9772,-0.9807,-0.9821,-0.9853,-0.9871,-0.9909,-0.9926,-0.9948,-0.9975,-0.9984,-0.9975,-1.0001,-1.0003,-0.9995,-0.9987,-0.9973,-0.9971,-0.9991,-0.9991,-0.9991,-0.9983,0,-0.9577,-0.9614,-0.9651,-0.9676,-0.9699,-0.9739,-0.9756,-0.9788,-0.9816,-0.9839,-0.987,-0.9896,-0.9916,-0.993,-0.9941,-0.9974,-0.9974,-0.9975,-1.0008,-1.0009,-0.9997,-0.9971,-0.9956,-0.9947,-0.9983,-0.9983,-0.9983,0,-0.9566,-0.9597,-0.9624,-0.9673,-0.9684,-0.9699,-0.9735,-0.9757,-0.9795,-0.9814,-0.9839,-0.9868,-0.9891,-0.9907,-0.9939,-0.9939,-0.9955,-0.9973,-0.9974,-0.9978,-0.9995,-0.9974,-0.9945,-0.9944,-0.9982,-0.9982,-0.9982,0,-0.9527,-0.9576,-0.9598,-0.9616,-0.9673,-0.9683,-0.9707,-0.9745,-0.9764,-0.9796,-0.9809,-0.9843,-0.9861,-0.9886,-0.9924,-0.9932,-0.9952,-0.9971,-0.9969,-0.9968,-0.9972,-0.9971,-0.9944,-0.9982,-0.9982,-0.9982,-0.9982,0,-0.9508,-0.9523,-0.9582,-0.9595,-0.9614,-0.9656,-0.9673,-0.9701,-0.9735,-0.9755,-0.9791,-0.9809,-0.9857,-0.9881,-0.991,-0.9933,-0.9941,-0.9957,-0.9965,-0.9954,-0.9952,-0.9965,-0.9967,-0.9981,-0.9981,-0.9981,-0.9981,0,-0.9467,-0.9507,-0.9534,-0.9587,-0.96,-0.9611,-0.9656,-0.9671,-0.9701,-0.9726,-0.9734,-0.9781,-0.9811,-0.9851,-0.9893,-0.9913,-0.9932,-0.9944,-0.9919,-0.9924,-0.992,-0.992,-0.9901,-0.9901,-0.9938,-0.9937,-0.9937,0,-0.9453,-0.9465,-0.9519,-0.9535,-0.9559,-0.9584,-0.9605,-0.9647,-0.9667,-0.9711,-0.9721,-0.9754,-0.9782,-0.9829,-0.9867,-0.9899,-0.9912,-0.9904,-0.9917,-0.9907,-0.9913,-0.9911,-0.9913,-0.99,-0.9899,-0.9899,-0.9898,0,-0.9423,-0.9442,-0.947,-0.9505,-0.9529,-0.9558,-0.9589,-0.96,-0.965,-0.967,-0.9701,-0.9723,-0.9767,-0.98,-0.9838,-0.9863,-0.9889,-0.9894,-0.9895,-0.9884,-0.987,-0.9878,-0.991,-0.9894,-0.9894,-0.9895,-0.9895,-0.9895,-0.9395,-0.9408,-0.9448,-0.9479,-0.9507,-0.9535,-0.9552,-0.9585,-0.9612,-0.9651,-0.9675,-0.9705,-0.9744,-0.9798,-0.9821,-0.9846,-0.9856,-0.9858,-0.9859,-0.9859,-0.9855,-0.9866,-0.9853,-0.9853,-0.9854,-0.9854,-0.9854,0,-0.9367,-0.9395,-0.9423,-0.9465,-0.9489,-0.9513,-0.9549,-0.9567,-0.9593,-0.9627,-0.9655,-0.9691,-0.9723,-0.9764,-0.9799,-0.9811,-0.9824,-0.9819,-0.9818,-0.9824,-0.9844,-0.9839,-0.9808,-0.9808,-0.9808,-0.9808,-0.9808,-0.9808,-0.9355,-0.9379,-0.9404,-0.9442,-0.947,-0.9501,-0.9519,-0.9546,-0.9573,-0.9613,-0.964,-0.9666,-0.9703,-0.9741,-0.9771,-0.9783,-0.9794,-0.9785,-0.98,-0.9818,-0.9822,-0.9826,-0.9822,-0.9787,-0.9787,-0.9777,-0.9777,-0.9777]},{"header":{"parameterUnit":"m.s-1","parameterCategory":1,"la1":30.2991,"la2":30.254,"lo1":-89.0895,"lo2":-89.0444,"dy":0.0017,"dx":0.0017,"nx":28,"ny":28,"refTime":"2023-08-23T21:00:00:Z","depth":0,"parameterNumber":3,"parameterNumberName":"V-component_of_WINDS"},"data":[0,0,0,0,0,0,0,0,0,0,0,0,0,0,0,0,0,0,0,0,0,0,0,0,0,0,0,0,0,0,0,0,0,0,0,0,0,0,0,0,0,0,0,0,0,0,0,0,0,0,0,0,0,0,0,0,0,0,-2.3254,-2.3254,0,-2.3218,-2.3218,-2.3218,-2.3166,-2.3165,-2.3164,-2.3163,-2.3126,-2.3125,-2.3125,0,0,0,0,0,0,0,0,0,0,0,0,0,-2.3277,-2.3277,-2.3254,-2.3254,-2.3253,-2.3219,-2.3218,-2.3218,-2.3166,-2.3165,-2.3164,-2.3163,-2.3126,-2.3125,-2.3125,0,0,0,0,0,0,0,0,0,0,0,0,0,-2.3257,-2.3277,-2.3254,-2.3223,-2.322,-2.3219,-2.3218,-2.3217,-2.3166,-2.3165,-2.3164,-2.3162,-2.3126,-2.3125,-2.3125,-2.3151,0,0,-2.3124,-2.3124,0,0,0,0,0,0,0,0,-2.3258,-2.3256,-2.3228,-2.3225,-2.3222,-2.3195,-2.3212,-2.3195,-2.3167,-2.3187,-2.3163,-2.3162,-2.315,-2.3147,-2.3144,-2.3149,-2.3147,-2.3124,-2.3124,-2.3124,-2.3124,0,0,0,0,0,0,0,-2.326,-2.3257,-2.324,-2.3228,-2.3224,-2.3211,-2.3207,-2.3209,-2.3176,-2.3185,-2.3181,-2.3178,-2.3148,-2.3144,-2.3142,-2.3147,-2.3124,-2.3124,-2.3124,-2.3124,-2.3173,-2.3174,0,0,0,0,0,0,-2.3266,-2.3259,-2.3241,-2.3239,-2.3237,-2.3212,-2.3207,-2.3205,-2.3176,-2.317,-2.3179,-2.3175,-2.3145,-2.3143,-2.3141,-2.317,-2.3124,-2.3124,-2.3124,-2.3171,-2.3173,-2.3175,0,0,0,0,0,0,-2.3266,-2.3265,-2.3242,-2.3248,-2.3244,-2.3213,-2.3211,-2.3205,-2.3201,-2.3171,-2.3165,-2.3181,-2.3144,-2.3141,-2.3149,-2.3168,-2.3124,-2.3124,-2.317,-2.3172,-2.3174,-2.3228,0,0,0,0,0,0,-2.3267,-2.3265,-2.3274,-2.3248,-2.3244,-2.3251,-2.3212,-2.3205,-2.3201,-2.3196,-2.3172,-2.3167,-2.3143,-2.315,-2.3149,-2.3167,-2.3123,-2.3168,-2.3171,-2.3173,-2.3225,-2.3232,-2.3238,0,0,0,0,0,-2.3268,-2.329,-2.3275,-2.3273,-2.3255,-2.3253,-2.325,-2.3223,-2.3203,-2.3212,-2.3193,-2.3167,-2.3166,-2.3151,-2.3149,-2.3168,-2.3166,-2.317,-2.3173,-2.3222,-2.3231,-2.3238,0,0,0,0,0,0,-2.3319,-2.3286,-2.3269,-2.3284,-2.3271,-2.3244,-2.3255,-2.3233,-2.3225,-2.3221,-2.3187,-2.3182,-2.3194,-2.3181,-2.3165,-2.3192,-2.3162,-2.3166,-2.32,-2.3208,-2.3215,-2.3218,-2.3123,0,0,0,0,0,-2.3332,-2.3333,-2.3304,-2.332,-2.3315,-2.3286,-2.3284,-2.3264,-2.325,-2.3244,-2.3225,-2.3212,-2.3209,-2.3208,-2.3203,-2.3222,-2.3217,-2.3234,-2.3241,-2.3247,-2.325,-2.3262,-2.327,-2.3185,-2.3185,-2.3185,0,0,-2.3358,-2.3341,-2.3343,-2.333,-2.3318,-2.332,-2.3282,-2.3285,-2.3287,-2.3244,-2.3251,-2.3237,-2.3221,-2.3235,-2.324,-2.3225,-2.3273,-2.3251,-2.3256,-2.3256,-2.3266,-2.3274,-2.3281,-2.3187,-2.3187,-2.3187,0,0,-2.3408,-2.3394,-2.3407,-2.3396,-2.3379,-2.336,-2.3363,-2.3339,-2.3329,-2.3335,-2.3304,-2.3305,-2.33,-2.329,-2.3284,-2.3332,-2.3308,-2.3331,-2.3367,-2.3379,-2.3385,-2.3391,-2.341,-2.3417,-2.3334,-2.3334,-2.3334,0,-2.3443,-2.3445,-2.3416,-2.3422,-2.3417,-2.338,-2.3393,-2.3383,-2.3366,-2.3363,-2.3346,-2.334,-2.3326,-2.3339,-2.3351,-2.3346,-2.335,-2.3334,-2.3387,-2.3392,-2.3397,-2.3415,-2.3422,-2.3337,-2.3337,-2.3337,-2.3336,0,-2.349,-2.3492,-2.3504,-2.3489,-2.3486,-2.3495,-2.3467,-2.3467,-2.3448,-2.3431,-2.3439,-2.3421,-2.3413,-2.3414,-2.3394,-2.3424,-2.3415,-2.3393,-2.3363,-2.3409,-2.3425,-2.3431,-2.3342,-2.3341,-2.334,-2.3339,0,0,-2.3571,-2.354,-2.3545,-2.3539,-2.3518,-2.3519,-2.3527,-2.352,-2.3521,-2.351,-2.3517,-2.3514,-2.3494,-2.3487,-2.3466,-2.3476,-2.3518,-2.3453,-2.3452,-2.3467,-2.3551,-2.357,-2.3578,-2.3501,-2.3503,-2.3503,-2.3553,0,-2.3618,-2.363,-2.3604,-2.3623,-2.3626,-2.3591,-2.3598,-2.3586,-2.3571,-2.357,-2.3553,-2.3552,-2.3524,-2.3521,-2.3529,-2.3511,-2.3534,-2.3507,-2.3508,-2.3509,-2.3515,-2.3586,-2.3605,-2.3653,-2.3559,-2.356,-2.3561,0,-2.3674,-2.3668,-2.3687,-2.3666,-2.3666,-2.3673,-2.3666,-2.3665,-2.3652,-2.364,-2.3634,-2.361,-2.3617,-2.3587,-2.3597,-2.3579,-2.3578,-2.3569,-2.3571,-2.3571,-2.3539,-2.359,-2.3667,-2.3675,-2.357,-2.3569,-2.3569,0,-2.3734,-2.3729,-2.3741,-2.3736,-2.3711,-2.3718,-2.3708,-2.3693,-2.369,-2.3683,-2.3682,-2.3676,-2.3673,-2.3668,-2.3644,-2.3624,-2.3657,-2.3625,-2.3649,-2.365,-2.3658,-2.3658,-2.3738,-2.3655,-2.3655,-2.3655,-2.3655,0,-2.3789,-2.3803,-2.3767,-2.3775,-2.3789,-2.3759,-2.3775,-2.3761,-2.3748,-2.3753,-2.3721,-2.3726,-2.3693,-2.3694,-2.3674,-2.3687,-2.3685,-2.3676,-2.3671,-2.368,-2.3682,-2.368,-2.3677,-2.3657,-2.3656,-2.3656,-2.3656,0,-2.3859,-2.3835,-2.3845,-2.3822,-2.3816,-2.3829,-2.3809,-2.3815,-2.3797,-2.3804,-2.3803,-2.3776,-2.3777,-2.3751,-2.3746,-2.3733,-2.3754,-2.3742,-2.3759,-2.3756,-2.3782,-2.378,-2.3865,-2.3875,-2.3784,-2.3785,-2.3786,0,-2.3897,-2.3907,-2.3885,-2.3886,-2.3878,-2.3879,-2.3878,-2.3849,-2.3848,-2.3834,-2.3842,-2.384,-2.3837,-2.3839,-2.3819,-2.3815,-2.3804,-2.3834,-2.3803,-2.3812,-2.3806,-2.3807,-2.3809,-2.3841,-2.3842,-2.3843,-2.3843,0,-2.3967,-2.3956,-2.3954,-2.3949,-2.3948,-2.3942,-2.3935,-2.3937,-2.3906,-2.3907,-2.3907,-2.3905,-2.39,-2.3899,-2.3892,-2.3881,-2.3858,-2.3853,-2.3859,-2.3869,-2.3879,-2.3876,-2.3779,-2.3852,-2.3851,-2.385,-2.385,-2.3849,-2.4023,-2.4031,-2.4018,-2.4018,-2.4009,-2.4003,-2.4008,-2.3992,-2.3992,-2.3986,-2.3969,-2.3973,-2.396,-2.3948,-2.394,-2.3943,-2.3928,-2.3936,-2.3938,-2.3941,-2.3947,-2.3878,-2.3941,-2.3941,-2.3941,-2.3941,-2.394,0,-2.4094,-2.4084,-2.4084,-2.4075,-2.4075,-2.4053,-2.4044,-2.4046,-2.4049,-2.4039,-2.4037,-2.4039,-2.4038,-2.4018,-2.4015,-2.4021,-2.401,-2.4021,-2.4021,-2.402,-2.3959,-2.3955,-2.403,-2.403,-2.403,-2.403,-2.403,-2.403,-2.4131,-2.4144,-2.4131,-2.414,-2.4129,-2.4133,-2.413,-2.4125,-2.4117,-2.412,-2.4119,-2.4106,-2.4093,-2.4089,-2.4087,-2.4082,-2.4083,-2.4098,-2.4089,-2.4033,-2.4024,-2.4016,-2.4012,-2.4098,-2.4098,-2.415,-2.415,-2.4151]}]]